Regional Weather Roundup
Issued by NWS Newport/Morehead, NC

Current Version | Previous Version | Text Only | Print | Product List | Glossary On
Versions: 1 2 3 4 5 6 7 8 9 10 11 12 13 14 15 16 17 18 19 20 21 22 23 24 25 26 27 28 29 30 31 32 33 34 35 36 37 38 39 40 41 42 43 44 45 46 47 48 49 50
000 ASUS42 KMHX 120713 RWRMHX WEATHER ROUNDUP FOR EASTERN NORTH CAROLINA NATIONAL WEATHER SERVICE NEWPORT/MOREHEAD CITY NC 200 AM EST TUE DEC 12 2017 NOTE: "FAIR" INDICATES FEW OR NO CLOUDS BELOW 12,000 FEET WITH NO SIGNIFICANT WEATHER AND/OR OBSTRUCTIONS TO VISIBILITY NCZ015>017-031-032-045>047-102-103-120800- NORTH COAST CITY SKY/WX TMP DP RH WIND PRES REMARKS EDENTON CLEAR 43 37 78 SW8 29.91F ELIZABETH CITY CLEAR 37 37 100 S6 29.90F KITTY HAWK SUNNY 43 38 82 CALM 29.89F MANTEO CLEAR 38 36 91 S3 29.91F $$ NCZ045>047-081-094-103-104-120800- CENTRAL COAST CITY SKY/WX TMP DP RH WIND PRES REMARKS FRISCO CLEAR 39 38 96 NW5 29.91F $$ NCZ095-097-098-100-101-120800- SOUTHERN COAST CITY SKY/WX TMP DP RH WIND PRES REMARKS BEAUFORT CLEAR 44 41 89 W6 29.93F CEDAR ISLAND NOT AVBL JACKSONVILLE CLEAR 40 36 86 S5 29.92F PINEY ISLAND N/A N/A N/A N/A SW7 29.93F WILMINGTON CLEAR 35 33 92 S3 29.93F $$ NCZ011>013-027>030-043-044-078>080-089-090>093-098-120800- COASTAL PLAIN CITY SKY/WX TMP DP RH WIND PRES REMARKS AHOSKIE CLEAR 34 29 85 SE5 29.88F CLINTON CLEAR 40 35 81 CALM 29.90F ELIZABETHTOWN NOT AVBL GOLDSBORO CLEAR 41 32 70 S6 29.87F GREENVILLE CLEAR 36 30 80 S5 29.92F HAVELOCK CLEAR 38 33 82 SW7 29.94F KENANSVILLE CLEAR 32 30 93 S3 29.91F KINSTON CLEAR 36 32 85 S6 29.91F NEW BERN CLEAR 33 32 96 S6 29.93F RICHLANDS CLEAR 32 30 92 S6 29.92F ROCKY MOUNT CLEAR 37 31 78 S5 29.86F WASHINGTON CLEAR 38 32 79 S3 29.91F WHITEVILLE CLEAR 40 35 82 S5 29.91F $$ AMZ130-135-150-152-154-156-158-170-250-252-270-ANZ085-086-088-633-658-670-120800- MARINE OBSERVATIONS STATION/POSITION TIME TEMP WIND PRES WAVE SWELL AIR SEA DIR/SP/G HT/PER HT/PER (UTC) (F) (DEG/KT/KT) (MB) (FT/S) (FT/S) CHESAPEAKE LIGHT NOT AVBL 64 E VA BEACH 0650 53 59 210/ 12/ 14 1012.7 3/ 3 2/ 8 DUCK 0636 54 170/ 5/ 7 1012.0 2 E DUCK 0700 54 N/A 2/13 OREGON INLET 0636 46 160/ 1/ 2 1012.8 13E OREGON INLT 0648 56 N/A 2/ 8 2/ 8 HATTERAS CG 0636 54 310/ 3/ 3 1012.7 DIAMOND BUOY 0700 62 76 240/ 16/ 17 1012.6 CAPE LOOKOUT 0700 240/ 9/ 12 1013.8 BEAUFORT LAB 0636 51 270/ 3/ 4 1013.6 30 SE NEW RVR IN 0608 56 68 260/ 14/ 19 1014.4 30 SE NEW RVR IN 0700 68 N/A 3/ 6 27 SE WRIGHTSVLE 0608 57 66 260/ 17/ 25 1014.5 5 SE WRIGHTSVLE NOT AVBL 225 S CAPE HAT 0650 68 76 230/ 16/ 19 1015.5 4/ 6 2/ 8 41 SE CHARLESTON 0700 260/ 21/ 27 1014.6 $$

USA.gov is the U.S. government's official web portal to all federal, state and local government web resources and services.